Location: Ch?enovice
(49.7164°N, 15.2160°E)
Time: 19:50:34
(UTC+00:00)

Cosmos 841 Rocket - Pass Details

Date: 23 May 2024
Orbit: 744 x 770 km, 74.0° (Epoch: 20 June)

Event Time Altitude Azimuth Distance (km) Brightness Sun altitude
Rises 00:24:47 0° 335° (NNW) 3,232 7.4 -16.9°
Reaches altitude 10° 00:27:09 10° 335° (NNW) 2,306 6.6 -16.8°
Maximum altitude 00:32:24 82° 249° (WSW) 780 3.4 -16.5°
Enters shadow 00:36:27 17° 163° (SSE) 1,855 5.1 -16.2°
